Weather History for Rochester, NH

Change the Weather History Date:

Saturday, May 11, 2013

  Actual Average (KSFM) Record (KSFM)
Temperature  
Mean Temperature 60 °F -  
Max Temperature 69 °F 62 °F 84 °F (2004)
Min Temperature 53 °F 39 °F 30 °F (1999)
Degree Days  
Heating Degree Days 4    
Growing Degree Days 10 (Base 50)    
Moisture  
Dew Point 58 °F    
Average Humidity 90    
Maximum Humidity 100    
Minimum Humidity 73    
Precipitation  
Precipitation 0.35 in - - ()
Sea Level Pressure  
Sea Level Pressure 29.75 in    
Wind  
Wind Speed 3 mph (South)    
Max Wind Speed 9 mph    
Max Gust Speed 16 mph    
Visibility 7 miles    
Events Rain    
Averages and records for this station are not official NWS values.
T = Trace of Precipitation, MM = Missing Value Source: NWS Daily Summary

Daily Weather History Graph

Daily Weather History Graph

Search for Another Location

Airport:

Trip Planner

Search our weather history database for the weather conditions in past years. The results will help you decide how hot, cold, wet, or windy it might be!

Date:

Astronomy

May. 11, 2013 Rise Set
Actual Time 5:23 AM EDT 7:56 PM EDT
Civil Twilight 4:51 AM EDT 8:29 PM EDT
Nautical Twilight 4:11 AM EDT 9:10 PM EDT
Astronomical Twilight 3:25 AM EDT 9:56 PM EDT
Moon 6:28 AM EDT (5/11) 9:35 PM EDT (5/11)
Length of Visible Light 15h 37m
Length of Day
14h 33m
Waxing Crescent, 3% of the Moon is Illuminated
May 11
Waxing Crescent
May 18
First Quarter
May 25
Full
May 31
Last Quarter
Jun 8
New

Hourly Weather History & Observations

Time (EDT) Temp. Dew Point Humidity Pressure Visibility Wind Dir Wind Speed Gust Speed Precip Events Conditions
12:51 AM 55.0 °F 52.0 °F 89% 29.90 in 10.0 mi Calm Calm - N/A   Overcast
1:51 AM 54.0 °F 52.0 °F 93% 29.88 in 10.0 mi Calm Calm - N/A   Overcast
2:51 AM 53.1 °F 51.1 °F 93% 29.86 in 9.0 mi Calm Calm - N/A   Mostly Cloudy
3:51 AM 53.1 °F 51.1 °F 93% 29.83 in 10.0 mi Calm Calm - N/A   Overcast
4:51 AM 53.1 °F 51.1 °F 93% 29.81 in 10.0 mi Calm Calm - N/A   Partly Cloudy
5:51 AM 53.1 °F 51.1 °F 93% 29.80 in 10.0 mi Calm Calm - N/A   Mostly Cloudy
6:51 AM 54.0 °F 53.1 °F 97% 29.80 in 3.0 mi Calm Calm - 0.02 in Rain Rain
7:48 AM 55.4 °F 53.6 °F 94% 29.80 in 1.8 mi South 3.5 mph - 0.08 in Rain Rain
7:51 AM 55.0 °F 53.1 °F 93% 29.81 in 1.2 mi WSW 3.5 mph - 0.09 in Rain Heavy Rain
7:55 AM 55.4 °F 53.6 °F 94% 29.81 in 0.8 mi Calm Calm - 0.04 in Rain Heavy Rain
8:04 AM 55.4 °F 53.6 °F 94% 29.80 in 1.2 mi Calm Calm - 0.06 in Rain Rain
8:09 AM 55.4 °F 53.6 °F 94% 29.80 in 2.5 mi Calm Calm - 0.06 in Rain Light Rain
8:19 AM 55.4 °F 55.4 °F 100% 29.80 in 3.0 mi Calm Calm - 0.07 in Rain Light Rain
8:51 AM 57.9 °F 55.9 °F 93% 29.78 in 4.0 mi SSE 5.8 mph - 0.07 in   Overcast
9:51 AM 61.0 °F 59.0 °F 93% 29.76 in 5.0 mi South 4.6 mph - N/A   Overcast
10:04 AM 60.8 °F 59.0 °F 94% 29.77 in 6.0 mi Variable 5.8 mph - N/A   Overcast
10:39 AM 64.4 °F 59.0 °F 83% 29.76 in 10.0 mi Variable 6.9 mph - N/A   Overcast
10:51 AM 64.9 °F 60.1 °F 84% 29.75 in 10.0 mi Variable 4.6 mph - N/A   Overcast
11:27 AM 66.2 °F 60.8 °F 83% 29.76 in 10.0 mi South 6.9 mph - N/A   Overcast
11:51 AM 66.0 °F 59.0 °F 78% 29.75 in 10.0 mi South 9.2 mph - N/A   Overcast
12:51 PM 66.0 °F 59.0 °F 78% 29.74 in 10.0 mi South 6.9 mph - N/A   Overcast
1:51 PM 64.9 °F 61.0 °F 87% 29.73 in 10.0 mi South 5.8 mph - 0.01 in Rain Light Rain
2:20 PM 66.2 °F 62.6 °F 88% 29.72 in 10.0 mi Variable 4.6 mph - 0.00 in   Overcast
2:51 PM 68.0 °F 61.0 °F 78% 29.70 in 10.0 mi Variable 4.6 mph 16.1 mph 0.00 in Rain Light Rain
3:29 PM 66.2 °F 62.6 °F 88% 29.70 in 10.0 mi Variable 3.5 mph - 0.00 in   Overcast
3:51 PM 66.9 °F 63.0 °F 87% 29.70 in 10.0 mi Calm Calm - 0.00 in   Overcast
4:43 PM 68.0 °F 60.8 °F 78% 29.69 in 10.0 mi Variable 5.8 mph - 0.00 in   Overcast
4:51 PM 68.0 °F 60.1 °F 76% 29.69 in 10.0 mi Variable 3.5 mph - 0.00 in   Overcast
5:16 PM 68.0 °F 59.0 °F 73% 29.69 in 10.0 mi South 6.9 mph - N/A   Overcast
5:37 PM 66.2 °F 59.0 °F 78% 29.70 in 10.0 mi Variable 6.9 mph - 0.00 in Rain Light Rain
5:51 PM 66.0 °F 60.1 °F 81% 29.69 in 5.0 mi South 8.1 mph - 0.01 in Rain Light Rain
6:03 PM 64.4 °F 60.8 °F 88% 29.70 in 2.5 mi South 4.6 mph - 0.03 in Rain Rain
6:10 PM 64.4 °F 60.8 °F 88% 29.71 in 1.8 mi SW 3.5 mph - 0.06 in Rain Rain
6:32 PM 62.6 °F 60.8 °F 94% 29.70 in 3.0 mi South 6.9 mph - 0.14 in Rain Light Rain
6:51 PM 63.0 °F 61.0 °F 93% 29.70 in 5.0 mi South 4.6 mph - 0.14 in Rain Light Rain
7:15 PM 62.6 °F 60.8 °F 94% 29.71 in 5.0 mi South 4.6 mph - 0.01 in Rain Light Rain
7:35 PM 62.6 °F 60.8 °F 94% 29.71 in 4.0 mi Variable 4.6 mph - 0.01 in Rain Light Rain
7:51 PM 62.1 °F 61.0 °F 96% 29.69 in 4.0 mi South 6.9 mph - 0.01 in Rain Light Rain
8:51 PM 62.1 °F 61.0 °F 96% 29.70 in 6.0 mi Variable 3.5 mph - 0.00 in   Overcast
9:31 PM 62.6 °F 60.8 °F 94% 29.70 in 6.0 mi South 4.6 mph - N/A   Overcast
9:51 PM 62.1 °F 61.0 °F 96% 29.70 in 5.0 mi South 4.6 mph - N/A   Mostly Cloudy
10:51 PM 62.1 °F 61.0 °F 96% 29.70 in 5.0 mi South 5.8 mph - N/A   Overcast
11:11 PM 62.6 °F 60.8 °F 94% 29.70 in 6.0 mi South 4.6 mph - N/A   Overcast
11:18 PM 62.6 °F 60.8 °F 94% 29.69 in 6.0 mi South 5.8 mph - N/A   Overcast
11:51 PM 62.1 °F 60.1 °F 93% 29.69 in 6.0 mi Calm Calm - N/A   Overcast